Mcarthur, CA Past Weather

Last 30 Days

 
High: 91ºf @3:54 PM    Low: 53ºf @5:54 AM     Approx. Precipitation / Rain Total: in.
Time (PDT)Temp. (ºf)Humidity (%)Dew Point (ºf)Barometer (inHG)Wind Speed (mph)Wind DirectionWind Gust (mph)1hr. Precip / Rain Total (in.)Snow Depth
7:54 PM832240.21-1.74nw7.82--
6:54 PM892346.35-0.87w6.95--
5:54 PM882547.73-1.74wnw7.82--
4:54 PM892548.57-0.87wsw6.08--
3:54 PM912550.25-1.74wnw7.82--
2:54 PM912550.25-0.87wnw6.95--
1:54 PM902549.41-1.74nw6.08--
12:54 PM872546.89-1.74wsw6.95--
10:54 AM783346.54-2.61wnw8.69--
9:54 AM753545.47-2.61nw6.95--
8:54 AM723844.99-1.74nw4.34--
7:54 AM694244.94---1.74--
6:54 AM575038.55-0.87nw3.48--
5:54 AM536039.49-1.74ne4.34--
4:54 AM554936.19-0.87nw2.61--
3:54 AM574636.43---3.48--
1:54 AM614338.34---7.82--
12:54 AM653536.68-0.87nw6.08--
High: 88ºf @3:54 PM    Low: ºf @2:54 PM     Approx. Precipitation / Rain Total: in.
Time (PDT)Temp. (ºf)Humidity (%)Dew Point (ºf)Barometer (inHG)Wind Speed (mph)Wind DirectionWind Gust (mph)1hr. Precip / Rain Total (in.)Snow Depth
10:54 PM693137.1-0.87e12.17--
9:54 PM732737.03-2.61n9.56--
8:54 PM---------
6:54 PM----71.26----
4:54 PM-13.6--2.61nw---
3:54 PM882951.72-1.74nw6.95--
2:54 PM---------
1:54 PM853251.8-1.74w8.69--
12:54 PM833854.74-2.61wnw9.56--
11:54 AM804254.82-1.74nw9.56--
10:54 AM764754.29-3.48wnw9.56--
9:54 AM725152.87-2.61nw10.43--
8:54 AM685953.13-2.61nw9.56--
7:54 AM656352.09-1.74nw6.08--
6:54 AM597450.72-0.87nnw4.34--
5:54 AM587249.02-1.74nw5.21--
4:54 AM606849.41-1.74n11.3--
3:54 AM606849.41-2.61n8.69--
2:54 AM----1.74----
1:54 AM626449.68-1.74ne13.9--
12:54 AM655749.39-3.48n14.77--
High: 90ºf @3:54 PM    Low: ºf @4:54 PM     Approx. Precipitation / Rain Total: in.
Time (PDT)Temp. (ºf)Humidity (%)Dew Point (ºf)Barometer (inHG)Wind Speed (mph)Wind DirectionWind Gust (mph)1hr. Precip / Rain Total (in.)Snow Depth
11:54 PM665448.87-2.61nnw10.43--
10:54 PM685048.66-4.34nw14.77--
9:54 PM714447.98-3.48nw11.3--
8:54 PM743846.77-1.74nw13.9--
6:54 PM842544.37-3.48nnw10.43--
5:54 PM----0.87wnw---
4:54 PM----0.87wsw---
3:54 PM901942.17-0.87ssw7.82--
2:54 PM901840.77-1.74n6.08--
1:54 PM881940.54-0.87nnw6.08--
12:54 PM872243.52-0.87wnw7.82--
11:54 AM822441.62-2.61wnw8.69--
10:54 AM783245.73-1.74nw8.69--
9:54 AM743947.46-2.61nw7.82--
8:54 AM704145.21-2.61nw6.08--
6:54 AM567046.35-0.87e4.34--
5:54 AM586044.19-0.87n10.43--
4:54 AM596045.13-2.61nw7.82--
3:54 AM596145.57-0.87ene5.21--
2:54 AM625545.64-1.74nnw8.69--
1:54 AM635446.09-1.74n6.08--
12:54 AM625545.64-0.87nne5.21--
High: 90ºf @3:54 PM    Low: 49ºf @5:54 AM     Approx. Precipitation / Rain Total: in.
Time (PDT)Temp. (ºf)Humidity (%)Dew Point (ºf)Barometer (inHG)Wind Speed (mph)Wind DirectionWind Gust (mph)1hr. Precip / Rain Total (in.)Snow Depth
11:54 PM644743.36-0.87ene6.08--
10:54 PM674041.87-1.74e4.34--
9:54 PM694747.92-0.87ene5.21--
8:54 PM744148.79-1.74ne6.08--
7:54 PM822643.71-1.74e5.21--
6:54 PM882244.35-0.87ssw9.56--
5:54 PM872041.05-4.34se9.56--
4:54 PM891839.96-2.61se10.43--
3:54 PM901739.3-3.48se11.3--
2:54 PM901840.77-4.34se12.17--
1:54 PM891839.96-4.34se12.17--
12:54 PM871838.34-4.34se14.77--
11:54 AM852545.21-5.21se13.9--
10:54 AM822643.71-5.21se13.03--
9:54 AM812945.72-4.34se8.69--
8:54 AM744853.05---1.74--
7:54 AM665649.85---2.61--
6:54 AM517643.7---1.74--
5:54 AM497942.77-0.87n3.48--
4:54 AM517342.65---2.61--
3:54 AM536943.1-1.74nne3.48--
1:54 AM566343.58-0.87ne3.48--
High: 88ºf @3:54 PM    Low: 52ºf @6:54 AM     Approx. Precipitation / Rain Total: in.
Time (PDT)Temp. (ºf)Humidity (%)Dew Point (ºf)Barometer (inHG)Wind Speed (mph)Wind DirectionWind Gust (mph)1hr. Precip / Rain Total (in.)Snow Depth
11:54 PM605644.26-0.87ne3.48--
10:54 PM644944.45-1.74ne3.48--
9:54 PM665147.35-1.74ne2.61--
8:54 PM753444.71-1.74ene7.82--
7:54 PM812541.84-4.34se8.69--
6:54 PM862141.49-2.61se8.69--
5:54 PM862040.23-3.48se11.3--
4:54 PM861837.53-4.34se8.69--
3:54 PM881839.15-3.48se9.56--
2:54 PM871838.34-4.34se9.56--
1:54 PM872041.05-2.61se13.03--
12:54 PM832037.77-5.21se8.69--
11:54 AM822744.69-2.61sse6.95--
10:54 AM774352.77-0.87ne5.21--
9:54 AM725152.87-2.61nw7.82--
8:54 AM685651.71-1.74wnw6.08--
7:54 AM646351.15---3.48--
6:54 AM527644.67-1.74ene3.48--
5:54 AM528848.56---2.61--
4:54 AM557948.61-0.87nnw4.34--
3:54 AM577549.15-0.87ne7.82--
2:54 AM587048.27-0.87nne7.82--
1:54 AM626148.39-1.74nnw8.69--
12:54 AM635747.52-2.61nw11.3--
High: 85ºf @2:54 PM    Low: 55ºf @6:54 AM     Approx. Precipitation / Rain Total: in.
Time (PDT)Temp. (ºf)Humidity (%)Dew Point (ºf)Barometer (inHG)Wind Speed (mph)Wind DirectionWind Gust (mph)1hr. Precip / Rain Total (in.)Snow Depth
11:54 PM655246.94-3.48nw9.56--
10:54 PM674645.53-2.61nw9.56--
9:54 PM713944.78-4.34nw11.3--
7:54 PM763042.31---3.48--
6:54 PM822441.62-0.87se6.08--
5:54 PM822239.38-3.48se7.82--
4:54 PM812541.84-2.61se10.43--
3:54 PM842443.3-3.48se9.56--
2:54 PM852343.02-2.61e10.43--
1:54 PM852343.02-0.87wnw6.08--
12:54 PM842241.04-1.74nw6.08--
11:54 AM822340.52-0.87nw6.08--
10:54 AM772942.29-2.61wnw7.82--
9:54 AM723744.29-1.74wnw6.95--
8:54 AM694345.56-1.74nw6.95--
7:54 AM655146.42-0.87n2.61--
6:54 AM556543.45---3.48--
4:54 AM565540.06-0.87nnw5.21--
1:54 AM594839.34---6.95--
12:54 AM633937.65-0.87nnw8.69--
High: 82ºf @6:54 PM    Low: 48ºf @5:54 AM     Approx. Precipitation / Rain Total: in.
Time (PDT)Temp. (ºf)Humidity (%)Dew Point (ºf)Barometer (inHG)Wind Speed (mph)Wind DirectionWind Gust (mph)1hr. Precip / Rain Total (in.)Snow Depth
11:54 PM653637.39-2.61nw11.3--
10:54 PM673538.44-3.48nnw8.69--
9:54 PM683237.03-1.74nnw9.56--
8:54 PM722635.23-3.48nw10.43--
7:54 PM762537.62-3.48nnw10.43--
6:54 PM822036.95-3.48nw11.3--
5:54 PM812036.13-3.48n7.82--
4:54 PM812238.55-1.74nw7.82--
3:54 PM822441.62-1.74w8.69--
2:54 PM822643.71-2.61wnw7.82--
1:54 PM802742.99-1.74nw8.69--
12:54 PM773144.03-3.48nw10.43--
11:54 AM743443.84-2.61wnw8.69--
10:54 AM694043.66-3.48wnw7.82--
9:54 AM674645.53-1.74wnw6.95--
8:54 AM635245.09-1.74nw6.95--
7:54 AM595844.24-0.87nnw6.95--
5:54 AM487640.8-0.87nw3.48--
3:54 AM526440.2-1.74nne5.21--
2:54 AM555840.5-1.74nnw7.82--
1:54 AM565740.98-2.61nnw9.56--
12:54 AM575641.46-3.48nw9.56--
High: 77ºf @3:54 PM    Low: 48ºf @5:54 AM     Approx. Precipitation / Rain Total: in.
Time (PDT)Temp. (ºf)Humidity (%)Dew Point (ºf)Barometer (inHG)Wind Speed (mph)Wind DirectionWind Gust (mph)1hr. Precip / Rain Total (in.)Snow Depth
11:54 PM585441.45-1.74nw9.56--
9:54 PM624640.98-3.48nw11.3--
8:54 PM654241.34-2.61nnw13.03--
7:54 PM683942.11-3.48nw12.17--
6:54 PM733241.39-5.21nnw14.77--
5:54 PM762739.59-2.61nnw11.3--
4:54 PM762537.62-3.48n13.03--
3:54 PM772437.43-4.34nnw13.9--
2:54 PM772336.35-3.48nnw11.3--
1:54 PM762739.59-2.61nnw13.9--
12:54 PM723139.7-4.34n13.9--
11:54 AM703440.33-4.34nw10.43--
10:54 AM674343.76-3.48nw11.3--
9:54 AM634843-3.48n13.9--
8:54 AM595643.32-3.48nnw12.17--
7:54 AM556543.45-3.48nw11.3--
5:54 AM488142.45-2.61nw9.56--
4:54 AM498043.1-2.61nw11.3--
3:54 AM497842.44-2.61wnw7.82--
2:54 AM517443.01-1.74wnw10.43--
1:54 AM537143.85-1.74nnw10.43--
12:54 AM556744.25-3.48nw13.03--
High: 83ºf @2:54 PM    Low: 52ºf @5:54 AM     Approx. Precipitation / Rain Total: in.
Time (PDT)Temp. (ºf)Humidity (%)Dew Point (ºf)Barometer (inHG)Wind Speed (mph)Wind DirectionWind Gust (mph)1hr. Precip / Rain Total (in.)Snow Depth
11:54 PM576143.68-1.74nnw9.56--
10:54 PM605644.26-3.48nw11.3--
9:54 PM625143.66-3.48nw12.17--
8:54 PM664644.62-3.48nw15.64--
7:54 PM704346.46-4.34nw13.9--
6:54 PM763747.83-4.34nw14.77--
5:54 PM783144.89-4.34nnw13.03--
4:54 PM821529.78-1.74sse11.3--
3:54 PM832341.36-2.61sse12.17--
2:54 PM832037.77-4.34se13.9--
1:54 PM831428.88-4.34se14.77--
12:54 PM811732.06-6.08se13.03--
11:54 AM813449.96---5.21--
10:54 AM744450.69-1.74wnw8.69--
9:54 AM714950.86-1.74nw6.95--
8:54 AM665448.87-3.48nw7.82--
7:54 AM636149.33-0.87nw3.48--
6:54 AM527343.62-1.74ene3.48--
5:54 AM527243.26---8.69--
2:54 AM585843.31---6.95--
12:54 AM614941.7-0.87wnw6.95--
High: 83ºf @1:54 PM    Low: ºf @11:54 AM     Approx. Precipitation / Rain Total: in.
Time (PDT)Temp. (ºf)Humidity (%)Dew Point (ºf)Barometer (inHG)Wind Speed (mph)Wind DirectionWind Gust (mph)1hr. Precip / Rain Total (in.)Snow Depth
11:54 PM----0.87----
10:54 PM663537.56-2.61n9.56--
8:54 PM-12.9--1.74ene---
7:54 PM772437.43-2.61nnw---
6:54 PM829279.44-1.74w---
3:54 PM---------
1:54 PM83---1.74w---
12:54 PM802843.94-2.61wnw8.69--
11:54 AM---------
10:54 AM743947.46-2.61nw9.56--
9:54 AM704346.46-2.61wnw9.56--
8:54 AM664845.74-1.74wnw6.95--
7:54 AM635446.09-1.74nnw6.95--
6:54 AM547245.18---1.74--
5:54 AM507843.41---3.48--
4:54 AM517242.3-0.87ne3.48--
3:54 AM---------
2:54 AM555840.5-0.87e6.08--
1:54 AM584737.88-0.87nw4.34--
12:54 AM604035.61---9.56--
High: 102ºf @11:54 AM    Low: 47ºf @5:54 AM     Approx. Precipitation / Rain Total: in.
Time (PDT)Temp. (ºf)Humidity (%)Dew Point (ºf)Barometer (inHG)Wind Speed (mph)Wind DirectionWind Gust (mph)1hr. Precip / Rain Total (in.)Snow Depth
11:54 PM633534.92-1.74nnw7.82--
10:54 PM643435.07-0.87nnw7.82--
9:54 PM663235.29-2.61nw8.69--
8:54 PM712331.33-2.61nw9.56--
7:54 PM752132.41-2.61nw9.56--
6:54 PM811732.06-3.48nw7.82--
5:54 PM812440.78-1.74wnw6.08--
4:54 PM812743.84-1.74sw6.95--
3:54 PM812541.84-2.61s6.95--
2:54 PM832644.55-0.87wnw6.95--
1:54 PM822542.68-0.87w9.56--
12:54 PM822845.65-0.87nw---
11:54 AM102----e---
10:54 AM743343.06-2.61nw9.56--
9:54 AM714146.1-1.74wnw8.69--
8:54 AM664342.86-3.48nw7.82--
7:54 AM625847.05-0.87ne4.34--
5:54 AM478241.79-0.87ene4.34--
4:54 AM497742.11-2.61ne4.34--
2:54 AM517242.3-2.61ne4.34--
1:54 AM536742.34-1.74ene4.34--
12:54 AM5312.83.17-1.74ne---
High: 80ºf @2:54 PM    Low: ºf @4:54 AM     Approx. Precipitation / Rain Total: in.
Time (PDT)Temp. (ºf)Humidity (%)Dew Point (ºf)Barometer (inHG)Wind Speed (mph)Wind DirectionWind Gust (mph)1hr. Precip / Rain Total (in.)Snow Depth
11:54 PM566343.58---4.34--
10:54 PM605644.26-0.87ne3.48--
9:54 PM635345.59-0.87nw4.34--
8:54 PM693943-0.87e7.82--
7:54 PM733543.72-5.21se12.17--
6:54 PM76---5.21se---
4:54 PM783044.03-5.21se13.03--
3:54 PM-----nne---
2:54 PM802642.01-4.34se13.03--
1:54 PM792742.14-6.08se13.9--
12:54 PM782539.31-6.95se15.64--
11:54 AM763243.99-6.08se15.64--
10:54 AM732636.08-5.21se13.03--
9:54 AM732938.85-4.34se9.56--
8:54 AM685048.66---3.48--
7:54 AM606246.94---2.61--
6:54 AM497441.08-0.87nne3.48--
5:54 AM467438.18-0.87n3.48--
4:54 AM-75----2.61--
2:54 AM506940.24---3.48--
1:54 AM536541.55-1.74-4.34--
12:54 AM556141.8-0.87nne5.21--
High: 82ºf @2:54 PM    Low: 45ºf @5:54 AM     Approx. Precipitation / Rain Total: in.
Time (PDT)Temp. (ºf)Humidity (%)Dew Point (ºf)Barometer (inHG)Wind Speed (mph)Wind DirectionWind Gust (mph)1hr. Precip / Rain Total (in.)Snow Depth
11:54 PM595442.38-1.74ne4.34--
9:54 PM683337.82-0.87nw4.34--
7:54 PM753343.93-1.74ese6.08--
6:54 PM792641.17-2.61se8.69--
5:54 PM802541-1.74sse9.56--
4:54 PM812238.55-3.48se11.3--
3:54 PM822036.95-4.34se10.43--
2:54 PM822036.95-4.34se12.17--
1:54 PM812743.84-0.87wnw6.08--
12:54 PM772740.44-0.87wnw7.82--
11:54 AM722837.1-2.61nw9.56--
10:54 AM683438.58-3.48wnw9.56--
9:54 AM644139.82-3.48wnw9.56--
8:54 AM614640.07-2.61nw7.82--
7:54 AM575340.04-0.87ne3.48--
6:54 AM476535.85-1.74ne3.48--
5:54 AM457136.17---2.61--
4:54 AM495935.3-0.87n4.34--
2:54 AM525134.44-0.87ene6.95--
1:54 AM554433.49-1.74nw13.03--
12:54 AM554332.92-4.34nw12.17--
High: 77ºf @3:54 PM    Low: 50ºf @5:54 AM     Approx. Precipitation / Rain Total: in.
Time (PDT)Temp. (ºf)Humidity (%)Dew Point (ºf)Barometer (inHG)Wind Speed (mph)Wind DirectionWind Gust (mph)1hr. Precip / Rain Total (in.)Snow Depth
11:54 PM574133.54-3.48nw11.3--
10:54 PM593833.43-2.61nnw13.9--
9:54 PM613633.86-4.34nw12.17--
7:54 PM692228.57-3.48n13.03--
6:54 PM752031.2-3.48nnw11.3--
5:54 PM761829.43-4.34nnw14.77--
4:54 PM761626.56-3.48nnw13.9--
3:54 PM771322.39-3.48nw13.9--
2:54 PM761321.61-4.34nnw13.9--
1:54 PM761728.03-4.34nnw12.17--
12:54 PM732231.9-4.34nnw13.9--
11:54 AM702330.49-3.48nw13.03--
10:54 AM663033.67-4.34n14.77--
9:54 AM644441.65-2.61nnw12.17--
8:54 AM595643.32-3.48n9.56--
7:54 AM566243.17-2.61n9.56--
5:54 AM507442.04-1.74n6.95--
4:54 AM516941.19-0.87nnw7.82--
2:54 AM546341.69-0.87nnw6.95--
1:54 AM556041.37-1.74nnw8.69--
12:54 AM575741.92-1.74nne6.08--
High: 80ºf @3:54 PM    Low: 52ºf @5:54 AM     Approx. Precipitation / Rain Total: in.
Time (PDT)Temp. (ºf)Humidity (%)Dew Point (ºf)Barometer (inHG)Wind Speed (mph)Wind DirectionWind Gust (mph)1hr. Precip / Rain Total (in.)Snow Depth
11:54 PM585541.92-1.74nnw12.17--
10:54 PM614841.17-2.61nw10.43--
9:54 PM634239.54-2.61nnw9.56--
8:54 PM663839.66-3.48nw---
7:54 PM723139.7-4.34nw12.17--
4:54 PM782438.27-3.48nnw---
3:54 PM802338.85-2.61nw9.56--
2:54 PM79---2.61wnw---
1:54 PM772336.35-3.48n11.3--
12:54 PM752435.75-2.61nw13.03--
11:54 AM713441.21-3.48nw13.9--
10:54 AM694043.66-3.48n13.9--
9:54 AM654744.27-4.34nw14.77--
8:54 AM625244.17-4.34nw12.17--
7:54 AM605141.82-2.61nnw7.82--
6:54 AM556242.22-1.74n6.95--
5:54 AM526540.6-1.74n8.69--
4:54 AM536139.91-2.61nnw13.03--
1:54 AM565640.53-4.34nw11.3--
12:54 AM565841.43-3.48nw12.17--
High: 72ºf @4:54 PM    Low: 6.3ºf @2:54 PM     Approx. Precipitation / Rain Total: in.
Time (PDT)Temp. (ºf)Humidity (%)Dew Point (ºf)Barometer (inHG)Wind Speed (mph)Wind DirectionWind Gust (mph)1hr. Precip / Rain Total (in.)Snow Depth
11:54 PM575440.52-5.21nw12.17--
10:54 PM585240.47-2.61wnw8.69--
9:54 PM624540.41-2.61nw9.56--
7:54 PM673639.16-3.48nnw16.51--
6:54 PM713340.44-4.34nnw---
5:54 PM713340.44-4.34nnw13.03--
4:54 PM72---3.48n12.17--
3:54 PM723038.86-4.34wnw16.51--
2:54 PM6.320-26.09-6.08----
1:54 PM703742.52-4.34nnw14.77--
11:54 AM664544.04-3.48nw12.17--
10:54 AM625244.17-4.34nnw13.03--
9:54 AM595743.79-2.61nnw12.17--
8:54 AM526942.15-2.61n11.3--
7:54 AM546642.9-2.61ne12.17--
6:54 AM497340.73-3.48nnw12.17--
5:54 AM477840.5-2.61n12.17--
4:54 AM487640.8-2.61n13.9--
3:54 AM487339.76-4.34nnw13.9--
2:54 AM497240.37-2.61nnw14.77--
1:54 AM506839.86-4.34nnw13.9--
12:54 AM516238.44-5.21nnw21.72--
High: 64ºf @3:54 PM    Low: 51ºf @11:54 PM     Approx. Precipitation / Rain Total: in.
Time (PDT)Temp. (ºf)Humidity (%)Dew Point (ºf)Barometer (inHG)Wind Speed (mph)Wind DirectionWind Gust (mph)1hr. Precip / Rain Total (in.)Snow Depth
11:54 PM516138.03-5.21nnw19.12--
10:54 PM525636.79-4.34nnw18.25--
9:54 PM535336.33-5.21nw16.51--
8:54 PM554634.6-5.21nw17.38--
7:54 PM574032.92-3.48nnw16.51--
6:54 PM613633.86-5.21nnw16.51--
5:54 PM633434.19-4.34nnw18.25--
4:54 PM633333.44-5.21n18.25--
3:54 PM643233.55-6.08nw17.38--
2:54 PM643334.32-5.21nnw16.51--
1:54 PM623534.03-6.95nnw17.38--
12:54 PM633736.32-5.21nnw15.64--
11:54 AM614539.5-5.21nnw15.64--
10:54 AM594939.87-6.08nw16.51--
9:54 AM585340.96-6.95nw18.25--
8:54 AM575942.81-6.08nw14.77--
7:54 AM556342.64-6.08nw17.38--
6:54 AM527343.62-6.08nw18.25--
5:54 AM526841.77-5.21nw13.9--
4:54 AM536240.33-4.34nw---
2:54 AM574837.51-2.61nw11.3--
1:54 AM584335.63-3.48wnw15.64--
12:54 AM61---5.21nw---
High: 80ºf @5:54 PM    Low: ºf @3:54 PM     Approx. Precipitation / Rain Total: in.
Time (PDT)Temp. (ºf)Humidity (%)Dew Point (ºf)Barometer (inHG)Wind Speed (mph)Wind DirectionWind Gust (mph)1hr. Precip / Rain Total (in.)Snow Depth
11:54 PM642729.35-6.08nw---
10:54 PM---------
8:54 PM702027.08-2.61nw11.3--
6:54 PM782842.24-4.34nnw17.38--
5:54 PM80---6.08nnw---
4:54 PM---------
3:54 PM---------
1:54 PM5.3---92.98----
12:54 PM---------
10:54 AM783850.31-2.61wnw8.69--
7:54 AM70---1.74nw---
6:54 AM616247.88-1.74ne3.48--
5:54 AM---------
4:54 AM664644.62-1.74n9.56--
3:54 AM66---1.74nne---
2:54 AM684244.04-0.87nw7.82--
1:54 AM704044.56-1.74nw6.95--
High: 90ºf @12:54 PM    Low: ºf @8:54 PM     Approx. Precipitation / Rain Total: in.
Time (PDT)Temp. (ºf)Humidity (%)Dew Point (ºf)Barometer (inHG)Wind Speed (mph)Wind DirectionWind Gust (mph)1hr. Precip / Rain Total (in.)Snow Depth
8:54 PM---------
7:54 PM---------
6:54 PM----2.61nnw---
5:54 PM----1.74----
2:54 PM---------
1:54 PM---------
12:54 PM902751.49-2.61wnw8.69--
11:54 AM883052.64-2.61wnw7.82--
10:54 AM----2.61wnw---
9:54 AM814054.38-2.61wnw7.82--
8:54 AM764553.11-2.61wnw8.69--
7:54 AM735354.84---3.48--
4:54 AM586847.5-0.87e3.48--
3:54 AM596748.06-0.87ne4.34--
2:54 AM635948.44-0.87ne4.34--
1:54 AM655146.42-0.87nne6.08--
High: 92ºf @3:54 PM    Low: ºf @10:54 PM     Approx. Precipitation / Rain Total: in.
Time (PDT)Temp. (ºf)Humidity (%)Dew Point (ºf)Barometer (inHG)Wind Speed (mph)Wind DirectionWind Gust (mph)1hr. Precip / Rain Total (in.)Snow Depth
11:54 PM---------
10:54 PM---------
8:54 PM793246.6-2.61nw7.82--
6:54 PM912044.32-2.61nw9.56--
5:54 PM901840.77-2.61n7.82--
4:54 PM902043.5-0.87wnw6.08--
3:54 PM921943.79-1.74n8.69--
2:54 PM912752.33-0.87wnw7.82--
1:54 PM892750.64-1.74wnw6.95--
12:54 PM863555.12-1.74wnw8.69--
11:54 AM814054.38-2.61nw8.69--
10:54 AM784554.92-2.61wnw8.69--
9:54 AM744853.05-2.61wnw8.69--
8:54 AM715051.41-2.61nw6.08--
7:54 AM685651.71-0.87nw4.34--
6:54 AM596948.84-0.87nw3.48--
5:54 AM567548.19---6.08--
4:54 AM577248.06---6.08--
2:54 AM625947.5-1.74nw8.69--
1:54 AM635948.44---6.08--
High: 85ºf @11:54 AM    Low: 63ºf @3:54 AM     Approx. Precipitation / Rain Total: in.
Time (PDT)Temp. (ºf)Humidity (%)Dew Point (ºf)Barometer (inHG)Wind Speed (mph)Wind DirectionWind Gust (mph)1hr. Precip / Rain Total (in.)Snow Depth
10:54 PM694446.17-3.48nnw13.03--
9:54 PM714045.45-4.34nw13.9--
8:54 PM733946.57-2.61nw10.43--
7:54 PM783951.01-2.61nw13.9--
6:54 PM823450.83-3.48nw12.17--
5:54 PM793649.74-3.48nnw13.03--
4:54 PM823249.2-2.61nnw10.43--
3:54 PM813449.96-3.48nw12.17--
2:54 PM813550.74-2.61nnw13.9--
1:54 PM833552.49-4.34nnw13.9--
12:54 PM843654.14-4.34nnw13.03--
11:54 AM853755.78-4.34nw12.17--
10:54 AM824256.61-3.48nw12.17--
9:54 AM794656.43-2.61nw10.43--
8:54 AM755155.63-3.48nw9.56--
6:54 AM686254.48-0.87wsw6.95--
5:54 AM675751.26-1.74wnw7.82--
4:54 AM675550.29-1.74-8.69--
3:54 AM636551.04-1.74ene3.48--
2:54 AM636751.86-0.87ene3.48--
1:54 AM676153.1-1.74ene5.21--
High: 97ºf @2:54 PM    Low: 57ºf @4:54 AM     Approx. Precipitation / Rain Total: in.
Time (PDT)Temp. (ºf)Humidity (%)Dew Point (ºf)Barometer (inHG)Wind Speed (mph)Wind DirectionWind Gust (mph)1hr. Precip / Rain Total (in.)Snow Depth
11:54 PM754250.33-1.74nw9.56--
10:54 PM774050.81-1.74nw9.56--
9:54 PM813449.96-2.61nw8.69--
8:54 PM803549.86---8.69--
7:54 PM844157.73-1.74ne6.08--
6:54 PM932653-1.74se6.95--
5:54 PM932450.82-0.87s6.95--
4:54 PM942046.77-4.34se10.43--
3:54 PM961947.04-3.48se9.56--
2:54 PM971846.41-2.61sse7.82--
1:54 PM952553.61-0.87w4.34--
12:54 PM942855.88---5.21--
11:54 AM903155.26-1.74wnw6.95--
10:54 AM863555.12-1.74nw6.95--
9:54 AM833754.01-1.74nw5.21--
8:54 AM794354.57-0.87nw6.08--
7:54 AM735656.36---4.34--
6:54 AM616448.73-1.74ne5.21--
5:54 AM596848.45-2.61ne4.34--
4:54 AM577348.43-2.61ne5.21--
3:54 AM596748.06-2.61ne4.34--
2:54 AM616549.15-3.48ne5.21--
1:54 AM626951.71-1.74ne4.34--
12:54 AM665951.25---3.48--
High: 91ºf @3:54 PM    Low: 54ºf @5:54 AM     Approx. Precipitation / Rain Total: in.
Time (PDT)Temp. (ºf)Humidity (%)Dew Point (ºf)Barometer (inHG)Wind Speed (mph)Wind DirectionWind Gust (mph)1hr. Precip / Rain Total (in.)Snow Depth
11:54 PM685350.22-0.87nne4.34--
10:54 PM744048.13-0.87ene6.08--
9:54 PM753746.94-1.74ne6.95--
8:54 PM765156.55-0.87ene4.34--
7:54 PM833552.49-0.87nw4.34--
6:54 PM902650.47-1.74wnw6.08--
5:54 PM892851.62-2.61wnw7.82--
4:54 PM902549.41-2.61nw7.82--
3:54 PM912550.25-0.87w6.95--
2:54 PM912550.25-1.74nne6.95--
1:54 PM902953.43-0.87w8.69--
12:54 PM873152.67-1.74nw7.82--
11:54 AM833350.9-2.61wnw7.82--
10:54 AM783648.86-3.48nw8.69--
9:54 AM763949.24-2.61wnw6.95--
8:54 AM744048.13-1.74nnw5.21--
7:54 AM684747.01-0.87nw7.82--
6:54 AM586144.63-0.87nne4.34--
5:54 AM546843.68-0.87ene2.61--
4:54 AM566544.4---1.74--
3:54 AM605443.3-0.87w12.17--
2:54 AM605945.63-0.87nw8.69--
1:54 AM635245.09-1.74nnw7.82--
12:54 AM645246.02-0.87ne9.56--
High: 85ºf @3:54 PM    Low: 59ºf @5:54 AM     Approx. Precipitation / Rain Total: in.
Time (PDT)Temp. (ºf)Humidity (%)Dew Point (ºf)Barometer (inHG)Wind Speed (mph)Wind DirectionWind Gust (mph)1hr. Precip / Rain Total (in.)Snow Depth
11:54 PM694647.35-3.48n11.3--
9:54 PM723442.08-3.48nw11.3--
8:54 PM743746.06-3.48nw11.3--
7:54 PM803045.76-3.48nnw11.3--
6:54 PM842342.19-2.61nnw13.9--
5:54 PM842139.84-2.61nnw10.43--
4:54 PM842241.04-3.48nnw11.3--
3:54 PM852140.66-2.61nw9.56--
2:54 PM832947.44-4.34nw13.03--
1:54 PM833048.34-2.61nw9.56--
12:54 PM803549.86-3.48nw9.56--
11:54 AM784353.67-2.61wnw9.56--
10:54 AM745054.16-2.61wnw7.82--
9:54 AM735555.86-1.74wnw6.95--
8:54 AM696154.98-2.61nw7.82--
7:54 AM666855.13-0.87n5.21--
6:54 AM617753.73-0.87ene7.82--
5:54 AM598153.17-1.74nw7.82--
4:54 AM607752.77-1.74nw6.95--
3:54 AM607552.05-0.87nw6.08--
2:54 AM617151.53-1.74nnw6.95--
1:54 AM636952.66-1.74nnw7.82--
High: 84ºf @6:54 PM    Low: 67ºf @11:54 PM     Approx. Precipitation / Rain Total: in.
Time (PDT)Temp. (ºf)Humidity (%)Dew Point (ºf)Barometer (inHG)Wind Speed (mph)Wind DirectionWind Gust (mph)1hr. Precip / Rain Total (in.)Snow Depth
11:54 PM675851.73-3.48nw10.43--
10:54 PM705050.49-3.48nw10.43--
9:54 PM714850.31-2.61nw10.43--
8:54 PM744249.44-2.61nnw9.56--
7:54 PM793548.99-3.48n12.17--
6:54 PM842948.29-3.48ese8.69--
Past Weather Disclaimer Note regarding "Approx. Precipitation / Rain Total"

Currently

Fair 83°F
29.99in
Barometer
23%
Humidity
Variable 3.5mph
Wind
Fair

Past Weather Nearby

More Local Information

Bookmark and Share

Go Ad Free - Become a Member